Eureka, Nunavut

6:56 PM CST on December 13, 2017 (GMT -0600)
Eureka

Weather History for CWEU - September, 2012

Change the Weather History Date:

Sunday, September 30, 2012

  Actual Average Record
Temperature  
Mean Temperature 24 °F -  
Max Temperature 26 °F -1 °F 32 °F (1998)
Min Temperature 21 °F -15 °F -13 °F (2000)
Degree Days  
Heating Degree Days 42    
Moisture  
Dew Point 20 °F    
Average Humidity 83    
Maximum Humidity 100    
Minimum Humidity 61    
Precipitation  
Precipitation 0.00 in 0.01 in - ()
Sea Level Pressure  
Sea Level Pressure 29.73 in    
Wind  
Wind Speed 1 mph ()    
Max Wind Speed 7 mph    
Max Gust Speed -    
Visibility 12.3 miles    
Events Snow    
Averages and records for this station are not official NWS values.
T = Trace of Precipitation, MM = Missing Value Source: Averaged Metar Reports

Daily Weather History Graph

Daily Weather History Graph

Search for Another Location

Airport or City:

Trip Planner

Search our weather history database for the weather conditions in past years. The results will help you decide how hot, cold, wet, or windy it might be!

Date:

Astronomy

Sep. 30, 2012 Rise Set
Actual Time 7:24 AM CDT 5:38 PM CDT
Civil Twilight 5:23 AM CDT 7:38 PM CDT
Nautical Twilight 2:16 AM CDT 10:34 PM CDT
Astronomical Twilight Sun does not rise Sun does not rise
Moon 2:33 PM CDT (9/30) 10:40 AM CDT (9/30)
Length of Visible Light 14h 14m
Length of Day
10h 14m
Full, 100% of the Moon is Illuminated
Sep 30
Full
Oct 8
Last Quarter
Oct 15
New
Oct 21
First Quarter
Oct 29
Full

Hourly Weather History & Observations

Time (CDT) Temp. Windchill Dew Point Humidity Pressure Visibility Wind Dir Wind Speed Gust Speed Precip Events Conditions
1:00 AM 24 °F - 16 °F 61% 29.65 in 10 mi Calm Calm - - Snow Light Snow
1:00 AM 23.0 °F - 15.8 °F 74% 29.65 in 10.0 mi Calm Calm - N/A Snow Light Snow
2:00 AM 23.0 °F - 15.8 °F 74% 29.65 in 10.0 mi Calm Calm - N/A Snow Light Snow
3:00 AM 23.0 °F - 15.8 °F 74% 29.66 in 10.0 mi ENE 2.3 mph - N/A Snow Light Snow
4:00 AM 23.0 °F - 15.8 °F 74% 29.67 in 12.0 mi Calm Calm - N/A Snow Light Snow
5:00 AM 23.0 °F - 15.8 °F 74% 29.68 in 12.0 mi Calm Calm - N/A Snow Light Snow
5:25 AM - - - N/A% - 12.0 mi Calm Calm - N/A   Unknown
5:45 AM - - - N/A% - 15.0 mi Calm Calm - N/A   Mostly Cloudy
6:00 AM 23.0 °F - 15.8 °F 74% 29.69 in 15.0 mi Calm Calm - N/A   Mostly Cloudy
6:27 AM - - - N/A% - 15.0 mi Calm Calm - N/A   Overcast
7:00 AM 25 °F - 18 °F 65% 29.70 in 15 mi Calm Calm - -   Partly Cloudy
7:00 AM 24.8 °F - 17.6 °F 74% 29.70 in 15.0 mi Calm Calm - N/A   Overcast
8:00 AM 24.8 °F - 17.6 °F 74% 29.72 in 15.0 mi Calm Calm - N/A   Overcast
9:00 AM 24.8 °F 20.5 °F 17.6 °F 74% 29.72 in 15.0 mi ESE 3.5 mph - N/A   Overcast
10:00 AM 23.0 °F - 17.6 °F 80% 29.72 in 15.0 mi Calm Calm - N/A   Overcast
10:44 AM - - - N/A% - 15.0 mi SE 3.5 mph - N/A   Unknown
11:00 AM 24.8 °F - 17.6 °F 74% 29.73 in 15.0 mi SSE 2.3 mph - N/A Snow Light Snow
12:00 PM 24.8 °F - 19.4 °F 80% 29.73 in 15.0 mi Calm Calm - N/A Snow Light Snow
1:00 PM 26 °F - 23 °F 85% 29.74 in 15 mi ESE 2.3 mph - - Snow Light Snow
1:00 PM 24.8 °F 20.5 °F 23.0 °F 93% 29.74 in 15.0 mi ESE 3.5 mph - N/A Snow Light Snow
2:00 PM 24.8 °F 19.1 °F 23.0 °F 93% 29.75 in 15.0 mi SE 4.6 mph - N/A Snow Light Snow
3:00 PM 24.8 °F 16.9 °F 23.0 °F 93% 29.76 in 15.0 mi South 6.9 mph - N/A Snow Light Snow
4:00 PM 24.8 °F 20.5 °F 21.2 °F 86% 29.76 in 15.0 mi South 3.5 mph - N/A Snow Light Snow
5:00 PM 24.8 °F - 23.0 °F 93% 29.77 in 15.0 mi Calm Calm - N/A Snow Light Snow
6:00 PM 24.8 °F - 23.0 °F 93% 29.77 in 10.0 mi Calm Calm - N/A Snow Light Snow
7:00 PM 25 °F - 24 °F 93% 29.78 in 7 mi Calm Calm - - Snow Light Snow
7:00 PM 24.8 °F - 23.0 °F 93% 29.78 in 7.0 mi Calm Calm - N/A Snow Light Snow
8:00 PM 24.8 °F 20.5 °F 24.8 °F 100% 29.78 in 4.0 mi SE 3.5 mph - N/A Snow Light Snow
9:00 PM 24.8 °F - 24.8 °F 100% 29.78 in 4.0 mi SSE 2.3 mph - N/A Snow Light Snow
10:00 PM 24.8 °F 20.5 °F 24.8 °F 100% 29.78 in 7.0 mi South 3.5 mph - N/A Snow Light Snow